Location: Croydon
(51.3762°N, 0.0982°W)
Time: 07:47:16
(UTC+01:00)

VELOX 1 - Pass Details

Date: 02 May 2019
Orbit: 629 x 644 km, 98.2° (Epoch: 23 May)

Event Time Altitude Azimuth Distance (km) Brightness Sun altitude
Exits shadow 01:20:26 36° 106° (ESE) 1,014 ? -23.2°
Maximum altitude 01:21:33 43° 67° (ENE) 887 ? -23.2°
Drops below altitude 10° 01:25:44 10° 357° (N) 2,025 ? -23.1°
Sets 01:28:00 0° 351° (N) 2,940 ? -23.1°
